Retour au catalogue

STARLINK-5940

ActifCommunicationsVLEO
NORAD 56012·PAYLOAD·🇺🇸 United States

Lancé Mar 24, 2023 depuis Cape Canaveral Space Force Station

Loading…

Prochains Passages (prochaines 24 heures)

TLE

FraisSource: CelesTrak SupGP

Époque: Sep 14, 2026, 21:01 UTC

1 56012C 23042AC  26257.87618056  .00040718  00000+0  14751-2 0  2574
2 56012  43.0016  56.4501 0001406 272.8616  74.9961 15.27552330    14

Suivez STARLINK-5940 en temps réel avec AllMySat

Download on the App Store